Location: Yecla
(38.6122°N, 1.1101°W)
Time: 02:57:12
(UTC+02:00)

ISS - Pass Details

Date: 26 March 2019
Orbit: 408 x 410 km, 51.6° (Epoch: 21 April)

Event Time Altitude Azimuth Distance (km) Brightness Sun altitude
Rises 20:56:55 0° 288° (WNW) 2,332 1.7 -19.0°
Reaches altitude 10° 21:00:13 10° 324° (NW) 1,472 -0.2 -19.6°
Maximum altitude 21:01:25 12° 345° (NNW) 1,383 -0.7 -19.8°
Drops below altitude 10° 21:02:37 10° 7° (N) 1,472 -0.8 -20.0°
Enters shadow 21:03:36 - 21° (NNE) 1,657 -0.7 -20.2°
